Regional Weather Roundup
Issued by NWS

Home | Current Version | Previous Version | Text Only | Print | Product List | Glossary On
Versions: 1 2 3 4 5 6 7 8 9 10 11 12 13 14 15 16 17 18 19 20 21 22 23 24 25 26 27 28
000
ASUS44 KJAN 241910
RWRMS

MISSISSIPPI HOURLY WEATHER ROUNDUP
NATIONAL WEATHER SERVICE JACKSON MS
100 PM CST FRI NOV 24 2017

NOTE: "FAIR: INDICATES FEW OR NO CLOUDS BELOW 12,000 FEET WITH NO
SIGNIFICANT WEATHER AND/OR OBSTRUCTIONS TO VISIBILITY.

MSZ001>002-007>008-010>013-018>021-025>028-034>036-242000-
NORTHWEST MISSISSIPPI

CITY           SKY/WX    TMP DP  RH WIND       PRES   REMARKS
BATESVILLE     FAIR      63  25  23 SW8       29.96F
CLARKSDALE       N/A     64  32  29 S10       29.94F
CLEVELAND      FAIR     N/A N/A N/A S12       29.96F
GREENWOOD      SUNNY     63  30  28 SW7       29.97F
GREENVILLE     SUNNY     62  29  28 S9        29.96F
OLIVE BRANCH   PTSUNNY  N/A N/A N/A SW12      29.90F
OXFORD         FAIR      59  27  29 VRB3      29.96F
TUNICA           N/A    N/A N/A N/A S12       29.94F
WINONA         FAIR      61  29  29 SW5       29.97F
$$

MSZ003>006-009-014>017-022>024-029>033-037>039-242000-
NORTHEAST MISSISSIPPI

CITY           SKY/WX    TMP DP  RH WIND       PRES   REMARKS
ABERDEEN       FAIR      63  41  45 SW6       29.99F
COLUMBUS AFB   SUNNY     62  26  26 S3        29.97F
CORINTH        FAIR      61  25  25 SE7       29.94F
GOLDN TRIANGLE SUNNY     61  24  24 CALM      29.98F
STARKVILLE     FAIR      61  25  25 CALM      29.99F
TUPELO         MOSUNNY   62  21  20 S8        29.96F
$$

MSZ040-058-242000-
CENTRAL MISSISSIPPI

CITY           SKY/WX    TMP DP  RH WIND       PRES   REMARKS
JACKSON INTL   PTSUNNY   65  24  21 CALM      29.97F
JACKSON HAWKNS MOSUNNY   61  25  25 S5        29.98F
MADISON        FAIR      61  27  27 CALM      29.97F
MERIDIAN KEY   SUNNY     63  27  25 SE3       29.97F
MERIDIAN NAS   CLOUDY    65  24  21 W5        29.98F
RAYMOND        FAIR      64  59  82 CALM      29.97F
VICKSBURG VKS  CLEAR     66  23  19 CALM      29.99F
$$

MSZ059>079-242000-
SOUTH MISSISSIPPI

CITY           SKY/WX    TMP DP  RH WIND       PRES   REMARKS
COLUMBIA       DRIZZLE   64  25  22 CALM      30.02F
HATTIESBURG    SUNNY     63  26  24 CALM      29.99F
LAUREL         FAIR      63  25  23 CALM      29.98F
MCCOMB         SUNNY     62  22  21 W3        29.98F
NATCHEZ        SUNNY     62  26  25 CALM      29.99F
PINE BELT      SUNNY     64  29  26 CALM      29.99F
$$

MSZ080>082-242000-
COASTAL MISSISSIPPI

CITY           SKY/WX    TMP DP  RH WIND       PRES   REMARKS
BAY ST LOUIS   SUNNY    N/A N/A N/A MISG      29.99F
BILOXI         SUNNY     64  35  34 S9        29.99S
PASCAGOULA     SUNNY     67  36  31 VRB5      29.98F
GULFPORT       SUNNY     64  35  34 S6        29.99S
$$

LAZ007>009-015>016-023>026-242000-
NORTHEAST LOUISIANA

CITY           SKY/WX    TMP DP  RH WIND       PRES   REMARKS
BASTROP        FAIR      64  31  29 S3        29.98F
TALLULAH/VBURG SUNNY     63  26  24 VRB6      29.98F
VIDALIA          N/A    N/A N/A N/A MISG      29.98F
$$




USA.gov is the U.S. government's official web portal to all federal, state and local government web resources and services.